Location: Unspecified
(0.0000°N, 0.0000°E)
Time: 10:24:37
(UTC+01:00)

ARIANE DEB (SPELDA) - Visible Passes

Search period start: 27 February 2017 00:00
Search period end: 09 March 2017 00:00
Orbit: 334 x 32953 km, 3.3° (Epoch: 26 February)

Date Brightness Start Highest point End Pass type
(mag) Time Alt. Az. Time Alt. Az. Time Alt. Az.
28 Feb 6.8 03:57:07 53° W 04:51:34 58° W 11:59:14 10° E visible
28 Feb 6.2 21:59:35 10° W 22:09:47 83° S 06:57:00 10° E visible
02 Mar 6.5 04:16:56 47° W 05:10:25 52° W 12:17:02 10° E visible
02 Mar 6.5 22:17:27 10° W 22:29:30 85° S 07:16:33 10° E visible
04 Mar 6.2 04:36:40 41° W 05:28:58 46° W 12:34:44 10° E visible
04 Mar 6.8 22:35:18 10° W 22:49:38 86° S 07:35:42 10° E visible
06 Mar 6.0 04:56:19 36° W 05:47:14 40° W 12:52:19 10° E visible
06 Mar 7.2 22:53:08 10° W 23:10:22 87° S 07:54:30 10° E visible
08 Mar 5.7 05:15:52 30° W 06:05:12 34° W 13:09:50 10° E visible
